sat.trackr.live / text

‹ back to catalog

QIANFAN-28

NORAD 61561 · 2024-185K

PAYLOAD ACTIVE UNKNOWN

§ Identity

Operator
Country
PRC
Launch date
2024-10-15
Launch site
TAISC
Launch vehicle
Mass (kg)
RCS (m²)

External: N2YO · Heavens-Above · Gunter

§ Orbital elements

Epoch: 2026-09-22T21:16:41.647296Z

Period
100.81 min
Inclination
88.9869°
Eccentricity
0.0009334
Mean motion
14.28490833 rev/d
Perigee alt
790.1 km
Apogee alt
803.5 km
Semi-major
7,174.9 km
B*
2.0600e-4
RAAN
43.6598°
Arg perigee
79.3467°
Mean anomaly
280.8779°
Rev number
11,073

§ Raw data

QIANFAN-281 61561U 24185K   26265.88659314  .00000531  00000+0  20600-3 0  99932 61561  88.9869  43.6598 0009334  79.3467 280.8779 14.28490833110734

JSON: /api/v1/satellites/61561 · /tle

For live sub-satellite position, see the globe view (requires WebGL).

§ Visibility from observer

Set your observer location to see the next 7 days of passes ≥ 10°. The values pass through the URL so the page stays shareable.

No JS? Fill the form by hand. The geolocation button needs JavaScript.